SCP
0 0 0 0 0 0 0 0 0 0 0 0 0 0 0 0 0 0 0 0 1 1 1 1 1 1 1 1 1 0 0 1 0 0 1 1 1 1 1 1 1 1 1
0 0 0 0 0 0 0 0 0 0 0 0 0 0 0 0 0 0 0 0 0 1 1 1 1 1 1 1 1 0 0 1 1 0 1 1 1 1 1 1 1 1 1
0 0 0 0 0 0 0 0 0 0 0 0 0 0 0 0 0 0 0 0 0 0 1 1 1 1 1 1 1 0 0 1 1 1 1 1 1 1 1 1 1 1 1
0 0 0 0 0 0 0 0 0 0 0 0 0 0 0 0 0 0 0 0 0 0 0 1 1 1 1 1 1 1 0 1 1 1 1 1 1 1 1 1 1 1 1
0 0 0 0 0 0 0 0 0 0 0 0 0 0 0 0 0 0 0 0 0 0 0 0 1 1 1 2 1 1 1 1 1 1 1 1 1 1 1 1 1 1 1
0 0 0 0 0 0 0 0 0 0 0 0 0 0 0 0 0 0 0 0 0 0 0 0 0 1 1 2 2 1 1 1 1 1 1 1 1 1 1 1 1 1 1
0 0 0 0 0 0 0 0 0 0 0 0 0 0 0 0 0 0 0 0 0 0 0 0 0 0 1 1 1 1 1 1 1 1 1 1 1 1 1 1 1 1 1
0 0 0 0 0 0 0 0 0 0 0 0 0 0 0 0 0 0 0 0 0 0 0 0 0 0 0 0 1 1 1 1 1 1 1 1 1 1 1 1 1 1 1
0 0 0 0 0 0 0 0 0 0 0 0 0 0 0 0 0 0 0 0 0 0 0 0 0 0 0 0 0 1 1 1 1 1 1 1 1 1 1 1 0 0 0
1 1 0 0 0 0 0 0 0 0 0 0 0 0 0 0 0 0 0 0 0 0 0 0 0 0 0 0 0 0 1 1 1 1 1 1 1 1 0 0 0 0 0
1 1 0 0 0 0 0 0 0 0 0 0 0 0 0 0 0 0 0 0 0 0 0 0 0 0 0 0 0 0 0 0 0 0 0 0 0 1 0 0 0 0 0
1 1 1 0 0 0 0 0 0 0 0 0 0 0 0 0 0 0 0 0 0 0 0 0 0 0 0 0 0 0 0 0 0 0 0 0 0 0 0 0 0 0 0
1 1 1 1 0 0 0 0 0 0 0 0 0 0 0 0 0 0 0 0 0 0 0 0 0 0 0 0 0 0 0 0 0 0 0 0 0 0 0 0 0 0 0
1 1 1 1 1 0 0 0 0 0 0 0 0 0 0 0 0 0 0 0 0 0 0 0 0 0 0 0 0 0 0 0 0 0 0 0 0 0 0 0 1 1 1
1 1 1 1 1 1 0 0 0 0 0 0 0 0 0 0 0 0 0 0 0 0 0 0 0 0 0 0 0 0 0 0 0 0 0 0 0 0 0 0 0 1 1
1 1 1 1 1 1 0 0 0 0 0 0 0 0 0 0 0 0 0 0 0 0 0 0 0 0 0 0 0 0 0 0 0 0 0 0 0 0 0 0 0 0 0
1 1 1 1 1 1 0 0 0 0 0 0 0 0 0 0 0 0 0 0 0 0 0 0 0 0 0 0 0 0 0 0 0 0 0 0 0 0 0 0 0 0 0
1 1 1 1 0 0 0 0 0 0 0 0 0 0 0 0 0 0 0 0 0 0 0 0 0 0 0 0 0 0 0 0 0 0 0 0 0 0 0 0 0 0 0
1 0 0 0 0 0 0 0 0 0 0 0 0 0 0 0 0 0 0 0 0 0 0 0 0 0 0 0 0 0 0 0 0 0 0 0 0 0 0 0 0 0 0
1 1 0 0 0 0 0 0 0 0 0 0 0 0 0 0 0 0 0 0 0 0 0 0 0 0 0 0 0 0 0 0 0 0 0 0 0 0 0 0 0 0 0
1 0 0 0 0 0 0 0 0 0 0 0 0 0 0 0 0 0 0 0 0 0 0 0 0 0 0 0 0 0 0 0 0 0 0 0 0 0 0 0 0 0 0
0 0 0 0 0 0 0 0 0 0 0 0 0 0 0 0 0 0 0 0 0 0 0 0 0 0 0 0 0 0 0 0 0 0 0 0 0 0 0 0 0 0 0
0 0 0 0 0 0 0 0 0 0 0 0 0 0 0 0 0 0 0 0 0 0 0 0 0 0 0 0 0 0 0 0 0 0 0 0 0 0 0 0 0 0 0
0 0 0 0 0 0 0 0 0 0 0 0 0 0 0 0 0 0 0 0 0 0 0 0 0 0 0 0 0 0 0 0 0 0 0 0 0 0 0 0 0 0 0
0 0 0 0 0 0 0 1 0 0 0 0 0 0 0 0 0 0 0 0 0 0 0 0 0 0 0 0 0 0 0 0 0 0 0 0 0 0 0 0 0 0 0
0 0 0 0 0 0 0 1 1 0 0 0 0 0 0 0 0 0 0 0 0 0 0 0 0 0 0 0 0 0 0 0 0 0 0 0 0 0 0 0 0 0 0
Wind_Speed
2 2 1 2 2 2 2 2 2 3 3 3 3 4 4 3 3 3 2 6 7 8 8 9 9 9 9 9 8 8 8 8 7 7 7 7 7 7 6 6 6 5 5
2 2 2 2 2 2 2 2 3 3 2 3 4 4 4 3 3 3 2 3 6 6 6 7 7 8 8 8 7 7 8 7 7 7 7 6 6 6 6 6 5 5 5
2 2 2 2 2 2 3 3 4 3 3 3 3 3 3 3 3 3 2 2 2 4 5 5 6 6 6 7 7 7 7 7 7 6 6 6 6 6 5 5 5 5 4
3 2 2 2 2 2 3 3 3 3 3 3 2 2 2 2 3 2 2 2 2 2 3 5 5 5 6 6 6 6 6 6 7 6 6 6 5 5 5 5 5 5 4
3 2 2 2 2 2 2 3 3 2 2 2 2 2 2 2 1 2 2 2 2 2 2 3 5 5 5 5 5 5 5 6 6 5 5 5 5 5 5 5 5 5 4
3 3 3 3 3 3 3 3 3 3 2 1 3 3 2 2 2 2 2 2 2 2 2 2 2 2 3 3 4 4 5 5 5 5 5 4 5 5 5 5 4 4 4
3 3 3 3 2 2 2 2 2 3 2 2 3 3 3 2 2 2 2 2 2 1 2 2 2 1 1 3 3 3 4 4 5 5 5 5 5 5 4 4 4 4 4
3 3 3 2 2 2 3 3 3 2 1 2 2 2 2 3 3 2 2 1 1 1 1 2 1 2 1 1 2 2 2 3 4 4 5 5 4 4 4 4 4 4 4
3 3 3 2 2 2 2 1 2 2 1 1 1 2 2 1 1 2 2 1 1 1 1 1 1 1 1 1 1 2 2 2 3 4 4 4 4 4 4 4 4 4 3
2 2 2 2 2 2 2 1 2 1 2 1 1 1 1 2 2 1 2 2 1 1 1 1 1 1 1 1 1 3 3 2 3 3 3 3 3 4 4 3 4 4 4
2 2 2 2 2 2 2 2 2 2 1 1 0 0 1 1 1 2 1 2 2 1 1 1 0 0 1 1 1 2 4 3 2 2 3 3 3 3 3 3 4 4 4
1 2 2 2 1 1 1 1 1 2 2 2 1 1 1 1 1 1 1 1 1 2 2 1 1 1 1 1 1 3 3 3 3 3 3 3 3 3 3 3 3 3 3
1 1 1 1 1 1 1 1 2 1 1 2 1 1 1 0 1 1 2 1 1 1 1 1 1 1 1 1 1 3 3 4 4 3 3 3 3 3 3 3 3 3 3
1 1 0 1 1 1 1 1 1 1 1 1 2 1 1 1 0 1 2 2 0 1 1 2 1 1 1 1 1 2 2 3 3 3 3 3 3 3 3 3 4 4 4
1 0 0 1 0 1 1 1 1 1 1 1 1 1 1 1 1 1 1 1 2 1 2 2 1 1 1 0 1 1 1 2 3 3 3 4 4 4 4 4 4 4 4
1 0 1 1 1 1 1 1 1 1 1 1 1 1 1 1 1 1 0 0 1 2 2 2 1 1 0 0 1 0 1 2 2 2 2 2 3 3 3 3 4 4 4
1 1 1 1 1 1 1 1 0 1 1 1 1 1 1 1 1 1 1 1 1 1 1 1 1 1 0 0 1 0 0 0 0 1 1 2 3 3 3 4 4 4 4
1 2 1 1 2 2 2 2 1 1 1 1 1 1 0 1 1 1 1 1 0 0 1 1 1 1 0 1 0 0 0 0 1 0 0 1 2 3 3 3 4 4 4
1 1 1 2 2 2 2 2 2 2 2 2 2 2 1 1 1 1 1 0 0 0 0 1 1 1 1 0 0 0 0 1 1 0 1 1 2 3 3 4 4 3 4
2 2 2 2 2 2 2 2 2 2 2 1 1 2 1 1 1 1 0 0 0 1 1 1 1 0 0 0 1 0 0 1 1 1 2 2 3 3 4 4 4 3 4
2 2 1 1 1 2 2 2 2 2 2 1 1 1 1 1 1 1 1 1 1 1 1 0 1 0 0 0 1 1 1 1 1 1 1 1 1 1 3 4 3 4 4
1 1 1 1 1 1 2 3 2 2 2 2 1 1 1 1 1 0 0 0 1 1 1 1 1 2 2 2 1 1 1 0 1 1 0 2 0 2 2 2 3 4 4
1 0 0 1 1 1 2 3 2 2 2 2 2 1 0 1 1 0 1 2 2 1 1 2 2 3 3 3 2 1 2 2 2 2 1 2 1 2 3 3 5 4 4
0 0 0 1 1 1 0 2 3 2 1 1 1 1 1 1 1 1 1 1 2 2 2 1 3 4 4 4 5 4 4 2 1 1 1 1 1 2 3 3 4 3 3
0 0 0 0 1 1 1 1 3 2 1 0 1 1 1 2 1 1 1 0 1 3 3 3 2 3 2 2 3 2 2 1 0 1 1 1 1 2 2 2 3 4 4
0 0 1 0 1 1 1 1 3 2 1 1 0 0 0 0 0 1 2 1 1 2 2 3 3 3 2 1 3 4 4 3 1 1 1 1 1 0 2 2 2 2 2
Wind_Direction
69 53 33 28 21 21 27 18 34 52 57 63 80 88 85 79 73 66 65 78 86 93 95 96 95 92 90 87 86 87 88 88 93 93 91 88 87 87 85 85 88 87 87
69 66 44 35 32 32 40 59 59 70 65 67 71 80 90 90 81 73 60 69 78 87 94 97 96 94 92 90 90 91 89 89 92 95 90 88 86 85 81 79 85 83 84
67 70 60 41 31 42 53 63 58 59 69 65 59 65 80 81 88 79 68 54 57 70 81 92 95 93 93 92 91 93 91 90 91 91 90 88 82 79 78 78 80 82 83
62 74 69 43 33 56 60 68 64 63 60 62 58 50 64 76 92 93 80 67 59 59 61 73 82 86 85 91 92 94 93 91 93 90 87 83 80 74 74 76 74 77 79
53 68 67 44 51 62 57 70 58 72 72 65 72 62 53 58 72 88 87 84 78 71 55 57 67 75 80 91 93 93 96 96 95 92 87 80 78 74 72 72 71 68 72
49 63 61 49 63 68 48 52 62 50 64 63 72 57 34 31 47 67 91 92 86 86 75 61 54 55 65 77 95 97 101 101 98 94 87 83 79 78 77 76 72 66 66
46 63 58 52 57 74 72 65 68 58 46 44 66 36 8 19 38 43 55 75 70 77 77 69 60 53 37 51 76 99 109 112 107 98 90 85 81 80 76 76 73 64 67
42 62 68 60 58 66 59 59 65 69 45 47 96 87 19 359 0 14 24 57 54 58 75 79 71 70 52 34 43 82 105 118 113 106 97 89 80 80 77 70 67 59 55
46 57 70 73 62 70 76 66 69 83 75 1 58 119 131 215 311 342 355 16 28 45 53 71 81 81 72 48 27 40 87 117 120 111 101 94 84 77 69 65 60 54 44
50 57 74 76 73 65 69 65 65 63 103 53 357 27 136 152 144 321 336 346 2 35 32 67 81 87 85 75 62 56 63 101 123 123 110 98 87 78 72 65 56 49 41
36 56 81 80 73 61 59 60 61 55 76 96 95 43 56 43 84 140 269 324 344 340 0 25 47 58 101 84 92 73 70 79 101 115 104 90 79 71 62 54 46 39 32
14 38 69 76 75 67 66 69 80 71 55 66 63 83 109 119 146 132 169 251 288 312 337 17 40 32 66 67 84 77 73 76 78 73 70 60 57 54 43 37 30 26 23
345 345 49 67 63 65 77 72 76 70 66 69 60 52 85 121 142 143 141 188 243 300 344 7 5 18 61 48 28 69 67 64 67 66 61 51 47 39 25 18 13 5 3
246 252 149 117 81 81 74 73 70 61 71 74 59 54 52 26 75 138 151 147 95 342 354 321 334 356 32 52 40 70 69 65 60 59 59 54 49 39 21 8 0 355 356
280 274 148 138 104 99 97 96 70 55 67 80 80 72 63 18 4 32 115 152 159 190 256 273 308 314 335 64 78 100 101 77 66 62 58 49 43 35 21 10 1 357 353
270 195 184 174 146 113 112 105 74 50 73 53 75 77 55 32 13 24 50 44 147 179 215 234 236 283 275 93 90 96 131 85 76 72 59 47 38 29 16 9 3 357 353
246 232 209 192 187 182 155 120 117 109 100 69 55 84 49 45 36 12 29 41 29 133 178 274 282 304 154 116 3 356 89 124 216 73 55 45 37 28 14 6 359 355 352
248 241 210 184 197 197 184 169 182 150 155 149 144 108 71 65 38 16 47 33 351 252 159 196 263 282 268 209 179 178 46 207 229 178 19 20 21 15 359 351 351 351 348
247 239 203 199 206 205 194 186 178 175 172 177 173 162 168 108 47 18 49 6 302 8 110 160 221 253 291 211 60 339 349 311 291 270 274 308 341 351 349 348 340 345 352
240 225 214 204 202 196 186 172 165 159 157 160 170 169 174 173 195 199 204 256 247 70 49 125 181 226 264 248 129 110 333 319 291 331 329 316 326 339 340 335 334 344 342
258 226 204 196 180 180 170 154 158 146 143 149 170 191 196 210 224 213 224 201 143 126 99 103 207 181 243 201 207 214 215 277 283 305 313 302 306 311 313 312 316 333 338
279 232 193 184 178 219 175 150 139 142 147 158 181 223 235 227 243 295 323 226 168 170 180 183 212 207 216 220 211 197 175 129 283 281 227 286 290 280 288 282 308 320 326
284 281 210 166 174 234 180 156 134 131 151 176 179 179 280 344 9 124 17 6 338 327 198 191 210 221 207 207 182 193 202 195 224 243 162 261 283 275 283 297 310 316 320
269 211 168 167 176 257 94 126 130 123 139 165 184 182 180 254 273 115 92 1 327 314 292 252 221 229 220 201 187 190 201 207 280 266 139 225 274 273 297 298 308 330 342
12 332 169 166 188 266 310 103 105 130 127 156 215 198 186 206 242 130 130 142 317 310 315 314 279 252 246 197 165 139 127 124 248 268 200 181 258 292 298 291 304 322 333
183 109 59 314 256 247 320 85 102 129 134 135 350 284 272 217 251 136 168 186 248 292 314 333 337 326 297 217 170 173 172 165 164 254 243 178 224 342 310 294 296 304 304